When you browse on this site, cookies collect data to enhance your experience and personalize the content and advertising you see.
Visit our Privacy Policy to learn more. By continuing to use the site, you agree to this use of cookies and data.
  • In Belgien
  • Länderverzeichnis
  • Für 7 Tage
  • Wassertemperatur
  • Wetterkarte
  • Widgets
  • user-avatar
    Anmelden

    Stündliche Wetter Serebryanyy Kolodec

    Heute, 26 Februar, Mittwoch

    Zeit Temperatur Niederschläge Wind Luftdruck Luftfeuchtigkeit
    00:00 -7°C° 0 mm 3 m/S 734 mmHg 85%
    01:00 -7°C° 0 mm 3 m/S 734 mmHg 86%
    02:00 -7°C° 0 mm 3 m/S 734 mmHg 88%
    03:00 -7°C° 0 mm 3 m/S 734 mmHg 91%
    04:00 -6°C° 0 mm 3 m/S 733 mmHg 92%
    05:00 -7°C° 0 mm 4 m/S 733 mmHg 94%
    06:00 -5°C° 0 mm 4 m/S 732 mmHg 95%
    07:00 -5°C° 0 mm 5 m/S 732 mmHg 95%
    08:00 -5°C° 0 mm 5 m/S 732 mmHg 95%
    09:00 -4°C° 0 mm 5 m/S 731 mmHg 95%
    10:00 -4°C° 0.1 mm 6 m/S 731 mmHg 96%
    11:00 -3°C° 0.1 mm 6 m/S 731 mmHg 97%
    12:00 -3°C° 0.1 mm 6 m/S 730 mmHg 98%
    13:00 -3°C° 0.7 mm 6 m/S 730 mmHg 99%
    14:00 -2°C° 0.7 mm 6 m/S 730 mmHg 99%
    15:00 -2°C° 0.7 mm 6 m/S 729 mmHg 99%
    16:00 -2°C° 0.3 mm 6 m/S 729 mmHg 99%
    17:00 -2°C° 0.3 mm 6 m/S 729 mmHg 99%
    18:00 -1°C° 0.3 mm 5 m/S 729 mmHg 99%
    19:00 -1°C° 0.1 mm 5 m/S 729 mmHg 99%
    20:00 -1°C° 0.1 mm 5 m/S 729 mmHg 99%
    21:00 -1°C° 0.1 mm 4 m/S 729 mmHg 99%
    22:00 -1°C° 0.1 mm 4 m/S 729 mmHg 99%
    23:00 0°C° 0.1 mm 3 m/S 729 mmHg 99%

    Morgen, 27 Februar, Donnerstag

    Zeit Temperatur Niederschläge Wind Luftdruck Luftfeuchtigkeit
    00:00 0°C° 0.1 mm 3 m/S 729 mmHg 99%
    01:00 0°C° 0.1 mm 3 m/S 729 mmHg 99%
    02:00 0°C° 0.1 mm 3 m/S 729 mmHg 99%
    03:00 0°C° 0.1 mm 3 m/S 729 mmHg 99%
    04:00 -1°C° 0 mm 4 m/S 728 mmHg 98%
    05:00 -1°C° 0 mm 4 m/S 728 mmHg 98%
    06:00 -1°C° 0 mm 5 m/S 728 mmHg 97%
    07:00 -1°C° 0 mm 5 m/S 728 mmHg 96%
    08:00 -2°C° 0 mm 6 m/S 728 mmHg 96%
    09:00 -2°C° 0 mm 6 m/S 727 mmHg 95%
    10:00 -2°C° 0 mm 6 m/S 727 mmHg 96%
    11:00 -2°C° 0 mm 6 m/S 727 mmHg 98%
    12:00 -2°C° 0 mm 6 m/S 727 mmHg 99%
    13:00 -1°C° 0 mm 5 m/S 727 mmHg 100%
    14:00 0°C° 0 mm 5 m/S 727 mmHg 100%
    15:00 0°C° 0 mm 4 m/S 727 mmHg 100%
    16:00 0°C° 0 mm 4 m/S 727 mmHg 99%
    17:00 0°C° 0 mm 4 m/S 727 mmHg 99%
    18:00 +1°C° 0 mm 3 m/S 727 mmHg 99%
    19:00 +1°C° 0 mm 3 m/S 727 mmHg 99%
    20:00 +1°C° 0 mm 3 m/S 727 mmHg 99%
    21:00 +1°C° 0 mm 3 m/S 727 mmHg 99%
    22:00 0°C° 0 mm 3 m/S 727 mmHg 98%
    23:00 +1°C° 0 mm 2 m/S 728 mmHg 98%

    übermorgen, 28 Februar, Freitag

    Zeit Temperatur Niederschläge Wind Luftdruck Luftfeuchtigkeit
    00:00 +1°C° 0 mm 2 m/S 728 mmHg 97%
    01:00 +1°C° 0 mm 2 m/S 728 mmHg 96%
    02:00 +1°C° 0 mm 1 m/S 728 mmHg 94%
    03:00 +1°C° 0 mm 1 m/S 727 mmHg 92%
    04:00 +1°C° 0.3 mm 1 m/S 727 mmHg 94%
    05:00 -1°C° 0.3 mm 2 m/S 727 mmHg 96%
    06:00 -1°C° 0.3 mm 2 m/S 727 mmHg 98%
    07:00 -1°C° 1.9 mm 3 m/S 727 mmHg 98%
    08:00 -1°C° 1.9 mm 3 m/S 726 mmHg 99%
    09:00 -2°C° 1.9 mm 4 m/S 726 mmHg 99%
    10:00 -2°C° 0.5 mm 4 m/S 726 mmHg 99%
    11:00 -2°C° 0.5 mm 5 m/S 726 mmHg 99%
    12:00 -2°C° 0.5 mm 5 m/S 726 mmHg 99%
    13:00 -2°C° 0.3 mm 4 m/S 727 mmHg 99%
    14:00 -2°C° 0.3 mm 4 m/S 728 mmHg 98%
    15:00 -1°C° 0.3 mm 4 m/S 728 mmHg 98%
    16:00 -2°C° 0 mm 4 m/S 729 mmHg 94%
    17:00 -1°C° 0 mm 3 m/S 730 mmHg 91%
    18:00 -2°C° 0 mm 3 m/S 731 mmHg 87%
    19:00 -2°C° 0 mm 3 m/S 732 mmHg 87%
    20:00 -3°C° 0 mm 4 m/S 732 mmHg 87%
    21:00 -4°C° 0 mm 4 m/S 733 mmHg 87%
    22:00 -4°C° 0 mm 4 m/S 733 mmHg 87%
    23:00 -5°C° 0 mm 3 m/S 734 mmHg 88%

    29 Februar, Samstag

    Zeit Temperatur Niederschläge Wind Luftdruck Luftfeuchtigkeit
    00:00 -5°C° 0 mm 3 m/S 734 mmHg 88%
    01:00 -5°C° 0 mm 3 m/S 734 mmHg 88%
    02:00 -5°C° 0 mm 3 m/S 735 mmHg 88%
    03:00 -5°C° 0 mm 3 m/S 735 mmHg 89%
    04:00 -5°C° 0 mm 3 m/S 735 mmHg 88%
    05:00 -5°C° 0 mm 3 m/S 735 mmHg 88%
    06:00 -4°C° 0 mm 2 m/S 735 mmHg 88%
    07:00 -4°C° 0 mm 2 m/S 735 mmHg 88%
    08:00 -3°C° 0 mm 2 m/S 735 mmHg 88%
    09:00 -3°C° 0 mm 2 m/S 736 mmHg 89%
    10:00 -2°C° 0 mm 2 m/S 736 mmHg 88%
    11:00 -2°C° 0 mm 2 m/S 736 mmHg 88%
    12:00 -1°C° 0 mm 3 m/S 736 mmHg 87%
    13:00 -1°C° 0 mm 2 m/S 736 mmHg 89%
    14:00 -1°C° 0 mm 2 m/S 736 mmHg 90%
    15:00 -1°C° 0 mm 2 m/S 736 mmHg 91%
    16:00 -1°C° 0 mm 2 m/S 736 mmHg 91%
    17:00 -2°C° 0 mm 2 m/S 736 mmHg 90%
    18:00 -3°C° 0 mm 2 m/S 737 mmHg 89%
    19:00 -1°C° 0 mm 1 m/S 737 mmHg 88%
    20:00 -1°C° 0 mm 1 m/S 738 mmHg 88%
    21:00 -1°C° 0 mm 1 m/S 738 mmHg 87%
    22:00 -1°C° 0 mm 1 m/S 738 mmHg 87%
    23:00 -1°C° 0 mm 1 m/S 739 mmHg 86%

    1 März, Sonntag

    Zeit Temperatur Niederschläge Wind Luftdruck Luftfeuchtigkeit
    00:00 -2°C° 0 mm 0 m/S 739 mmHg 86%
    01:00 -2°C° 0 mm 0 m/S 739 mmHg 86%
    02:00 -2°C° 0 mm 0 m/S 740 mmHg 86%
    03:00 -3°C° 0 mm 0 m/S 740 mmHg 86%
    04:00 -2°C° 0 mm 1 m/S 741 mmHg 86%
    05:00 -2°C° 0 mm 1 m/S 741 mmHg 86%
    06:00 -2°C° 0 mm 1 m/S 742 mmHg 87%
    07:00 -2°C° 0 mm 1 m/S 742 mmHg 88%
    08:00 -2°C° 0 mm 1 m/S 743 mmHg 89%
    09:00 -2°C° 0 mm 1 m/S 743 mmHg 90%
    10:00 -1°C° 0 mm 1 m/S 743 mmHg 89%
    11:00 0°C° 0 mm 1 m/S 744 mmHg 88%
    12:00 +1°C° 0 mm 1 m/S 744 mmHg 87%
    13:00 +1°C° 0 mm 1 m/S 744 mmHg 89%
    14:00 0°C° 0 mm 0 m/S 744 mmHg 90%
    15:00 0°C° 0 mm 0 m/S 744 mmHg 92%
    16:00 0°C° 0 mm 1 m/S 744 mmHg 90%
    17:00 -1°C° 0 mm 1 m/S 744 mmHg 89%
    18:00 -1°C° 0 mm 1 m/S 745 mmHg 88%
    19:00 -1°C° 0 mm 1 m/S 745 mmHg 87%
    20:00 -4°C° 0 mm 2 m/S 745 mmHg 87%
    21:00 -4°C° 0 mm 2 m/S 746 mmHg 87%
    22:00 -4°C° 0 mm 2 m/S 746 mmHg 88%
    23:00 -4°C° 0 mm 2 m/S 746 mmHg 89%

    2 März, Montag

    Zeit Temperatur Niederschläge Wind Luftdruck Luftfeuchtigkeit
    00:00 -5°C° 0 mm 3 m/S 746 mmHg 90%
    01:00 -5°C° 0 mm 3 m/S 746 mmHg 91%
    02:00 -5°C° 0 mm 3 m/S 746 mmHg 92%
    03:00 -5°C° 0 mm 3 m/S 746 mmHg 92%
    04:00 -5°C° 0 mm 3 m/S 745 mmHg 93%
    05:00 -4°C° 0 mm 3 m/S 745 mmHg 94%
    06:00 -4°C° 0 mm 3 m/S 745 mmHg 94%
    07:00 -4°C° 0 mm 4 m/S 745 mmHg 94%
    08:00 -4°C° 0 mm 5 m/S 745 mmHg 95%
    09:00 -4°C° 0 mm 5 m/S 745 mmHg 95%
    10:00 -2°C° 0 mm 5 m/S 745 mmHg 94%
    11:00 -2°C° 0 mm 5 m/S 745 mmHg 92%
    12:00 -2°C° 0 mm 5 m/S 745 mmHg 91%
    13:00 -1°C° 0 mm 5 m/S 744 mmHg 91%
    14:00 -1°C° 0 mm 5 m/S 744 mmHg 92%
    15:00 -1°C° 0 mm 5 m/S 744 mmHg 93%
    16:00 -1°C° 0 mm 5 m/S 744 mmHg 91%
    17:00 -1°C° 0 mm 5 m/S 744 mmHg 90%
    18:00 -1°C° 0 mm 4 m/S 743 mmHg 89%
    19:00 -1°C° 0 mm 4 m/S 743 mmHg 89%
    20:00 -1°C° 0 mm 4 m/S 743 mmHg 89%
    21:00 -1°C° 0 mm 4 m/S 743 mmHg 88%
    22:00 -1°C° 0 mm 4 m/S 744 mmHg 88%
    23:00 -1°C° 0 mm 4 m/S 744 mmHg 88%
    Mehr zeigen